SA3VCC-15 Weather Reports


time (UTC)temp
C
wind
direction
speed
KPH
gust
KPH
rain 1hr
cm
rain 24hr
cm
rain mn
cm
humidity
%
barometer
mb
20260508020151 -3 0.0 0.0 0.00 0.00 0.00 10 1020.5
20260508011951 -2 0.0 0.0 0.00 0.00 0.00 10 1020.1
20260508005850 -2 0.0 0.0 0.00 0.00 0.00 10 1019.9
20260508001651 -2 0.0 0.0 0.00 0.00 0.00 10 1019.8
20260507235550 -1 0.0 0.0 0.00 0.00 0.00 10 1019.6
20260507233450 -1 0.0 0.0 0.00 0.00 0.00 10 1019.5
20260507231350 -1 0.0 0.0 0.00 0.00 0.00 10 1019.1
20260507223150 0 0.0 0.0 0.00 0.00 0.00 99 1018.8
20260507221050 0 0.0 0.0 0.00 0.00 0.00 97 1018.7
20260507214950 0 0.0 0.0 0.00 0.00 0.00 95 1018.6
20260507212850 1 0.0 0.0 0.00 0.00 0.00 92 1018.4
20260507210750 1 0.0 0.0 0.00 0.00 0.00 88 1018.1
20260507204650 1 0.0 0.0 0.00 0.00 0.00 86 1017.7
20260507202550 2 0.0 0.0 0.00 0.00 0.00 83 1017.4
20260507200450 3 0.0 0.0 0.00 0.00 0.00 79 1017.2
20260507194350 5 0.0 0.0 0.00 0.00 0.00 70 1016.9
20260507190150 6 0.0 0.0 0.00 0.00 0.00 55 1016.3
20260507184050 7 0.0 0.0 0.00 0.00 0.00 52 1015.9
20260507181949 8 0.0 0.0 0.00 0.00 0.00 49 1015.6
20260507175850 10 0.0 0.0 0.00 0.00 0.00 45 1015.4
20260507171649 10 0.0 0.0 0.00 0.00 0.00 40 1014.9
20260507165550 11 0.0 0.0 0.00 0.00 0.00 42 1014.7
20260507163449 13 0.0 0.0 0.00 0.00 0.00 36 1014.4
20260507161349 15 0.0 0.0 0.00 0.00 0.00 32 1014.3
20260507155249 16 0.0 0.0 0.00 0.00 0.00 30 1014.2
20260507153149 11 0.0 0.0 0.00 0.00 0.00 41 1014.2
20260507151049 11 0.0 0.0 0.00 0.00 0.00 42 1014.1
20260507142849 17 0.0 0.0 0.00 0.00 0.00 29 1013.8
20260507140749 17 0.0 0.0 0.00 0.00 0.00 29 1013.7
20260507134649 16 0.0 0.0 0.00 0.00 0.00 32 1013.6
20260507132549 15 0.0 0.0 0.00 0.00 0.00 32 1013.5
20260507130449 15 0.0 0.0 0.00 0.00 0.00 37 1013.4
20260507124349 13 0.0 0.0 0.00 0.00 0.00 37 1013.5
20260507122249 16 0.0 0.0 0.00 0.00 0.00 35 1013.3
20260507120150 14 0.0 0.0 0.00 0.00 0.00 40 1013.2
20260507114049 11 0.0 0.0 0.00 0.00 0.00 42 1012.9
20260507111949 15 0.0 0.0 0.00 0.00 0.00 33 1012.7
20260507105849 15 0.0 0.0 0.00 0.00 0.00 31 1012.6
20260507103749 15 0.0 0.0 0.00 0.00 0.00 33 1012.5
20260507101649 16 0.0 0.0 0.00 0.00 0.00 34 1012.3
20260507095549 21 0.0 0.0 0.00 0.00 0.00 25 1012.2
20260507093449 17 0.0 0.0 0.00 0.00 0.00 30 1012.2
20260507091349 17 0.0 0.0 0.00 0.00 0.00 31 1012.3
20260507085249 15 0.0 0.0 0.00 0.00 0.00 29 1012.2
20260507083149 15 0.0 0.0 0.00 0.00 0.00 35 1012.2
20260507081049 17 0.0 0.0 0.00 0.00 0.00 33 1012.0
20260507074949 15 0.0 0.0 0.00 0.00 0.00 32 1012.0
20260507072849 13 0.0 0.0 0.00 0.00 0.00 38 1011.9
20260507070749 11 0.0 0.0 0.00 0.00 0.00 40 1011.8
20260507060449 8 0.0 0.0 0.00 0.00 0.00 48 1011.4
20260507054349 6 0.0 0.0 0.00 0.00 0.00 52 1011.3
20260507052249 6 0.0 0.0 0.00 0.00 0.00 55 1011.2
20260507050148 5 0.0 0.0 0.00 0.00 0.00 55 1011.2
20260507044048 4 0.0 0.0 0.00 0.00 0.00 58 1011.2
20260507041948 5 0.0 0.0 0.00 0.00 0.00 56 1011.1
20260507035848 3 0.0 0.0 0.00 0.00 0.00 60 1011.0
20260507031649 2 0.0 0.0 0.00 0.00 0.00 61 1010.7
20260507025548 3 0.0 0.0 0.00 0.00 0.00 62 1010.6